Simultaneous Nadir Overpasses (SNOs) Predictions

Prediction of SNOs between GOES-16 and NOAA-19 Satellite Orbit:

Table of predicted SNOs for the next 14.0 days since TLE Epoch: 9/30/2023
Index Date Time (GOES-16) GOES-16 Lat,Lon NOAA-19 Lat,Lon Distance(km) Time Diff (sec)
1 10/02/2023 13:55:05 -0.05, -75.23 0.33, -76.91 191.90 80
2 10/03/2023 13:45:39 -0.05, -75.24 -0.36, -73.97 144.98 80
3 10/04/2023 13:33:33 -0.04, -75.25 -1.00, -71.02 481.94 80
4 10/06/2023 02:02:55 0.05, -75.24 -0.78, -78.70 395.51 80
5 10/07/2023 01:50:50 0.04, -75.25 -0.07, -75.76 58.09 80
6 10/08/2023 01:41:23 0.04, -75.26 0.58, -72.81 279.54 80
7 10/10/2023 13:58:41 -0.04, -75.32 0.50, -77.56 255.64 80
8 10/11/2023 13:49:15 -0.04, -75.34 -0.22, -74.62 82.69 80
9 10/12/2023 13:34:29 -0.04, -75.36 -0.87, -71.67 421.16 80
